| time (UTC) | temp C | wind direction | speed KPH | gust KPH | rain 1hr cm | rain 24hr cm | rain mn cm | humidity % | barometer mb |
| 20260503070308 | 0 | 240 | 14.5 | 0.0 | 0.00 | 0.00 | 0.00 | 86 | 1008.0 |
| 20260503060307 | 0 | 0 | 3.2 | 0.0 | 0.00 | 0.00 | 0.00 | 80 | 1008.0 |
| 20260503053306 | 0 | 0 | 0.0 | 0.0 | 0.00 | 0.00 | 0.00 | 80 | 1008.0 |
| 20260503050307 | 0 | 210 | 9.7 | 0.0 | 0.00 | 0.00 | 0.00 | 86 | 1008.0 |
| 20260503043309 | 0 | 250 | 14.5 | 0.0 | 0.00 | 0.00 | 0.00 | 86 | 1008.0 |
| 20260503040306 | 0 | 90 | 4.8 | 0.0 | 0.00 | 0.00 | 0.00 | 86 | 1008.0 |
| 20260503033307 | 0 | 200 | 3.2 | 0.0 | 0.00 | 0.00 | 0.00 | 92 | 1008.0 |
| 20260503030307 | 0 | 280 | 9.7 | 0.0 | 0.00 | 0.00 | 0.00 | 86 | 1008.0 |
| 20260503023306 | 0 | 310 | 9.7 | 0.0 | 0.00 | 0.00 | 0.00 | 86 | 1008.0 |
| 20260503020307 | 0 | 60 | 1.6 | 0.0 | 0.00 | 0.00 | 0.00 | 86 | 1007.0 |
| 20260503013308 | 0 | 300 | 16.1 | 0.0 | 0.00 | 0.00 | 0.00 | 80 | 1007.0 |
| 20260503010309 | 0 | 300 | 11.3 | 0.0 | 0.00 | 0.00 | 0.00 | 92 | 1007.0 |
| 20260503003309 | 0 | 280 | 16.1 | 0.0 | 0.00 | 0.00 | 0.00 | 86 | 1007.0 |
| 20260503000306 | 0 | 280 | 9.7 | 0.0 | 0.00 | 0.00 | 0.00 | 93 | 1007.0 |
| 20260502233310 | 0 | 270 | 9.7 | 0.0 | 0.00 | 0.00 | 0.00 | 93 | 1007.0 |
| 20260502230307 | 0 | 330 | 8.0 | 0.0 | 0.00 | 0.00 | 0.00 | 93 | 1007.0 |
| 20260502223307 | 0 | 0 | 3.2 | 0.0 | 0.00 | 0.00 | 0.00 | 93 | 1007.0 |
| 20260502220307 | 0 | 140 | 4.8 | 0.0 | 0.00 | 0.00 | 0.00 | 93 | 1007.0 |
| 20260502213308 | 0 | 310 | 4.8 | 0.0 | 0.00 | 0.00 | 0.00 | 93 | 1007.0 |
| 20260502210306 | 1 | 0 | 0.0 | 0.0 | 0.00 | 0.00 | 0.00 | 86 | 1006.0 |
| 20260502203306 | 1 | 250 | 12.9 | 0.0 | 0.00 | 0.00 | 0.00 | 86 | 1006.0 |
| 20260502200307 | 1 | 240 | 8.0 | 0.0 | 0.00 | 0.00 | 0.00 | 86 | 1006.0 |
| 20260502193309 | 1 | 260 | 8.0 | 0.0 | 0.00 | 0.00 | 0.00 | 93 | 1006.0 |
| 20260502190307 | 1 | 250 | 19.3 | 0.0 | 0.00 | 0.00 | 0.00 | 86 | 1006.0 |
| 20260502183306 | 1 | 240 | 16.1 | 0.0 | 0.00 | 0.00 | 0.00 | 86 | 1006.0 |
| 20260502180308 | 2 | 240 | 11.3 | 0.0 | 0.00 | 0.00 | 0.00 | 80 | 1006.0 |
| 20260502170308 | 2 | 270 | 12.9 | 0.0 | 0.00 | 0.00 | 0.00 | 80 | 1006.0 |
| 20260502163308 | 2 | 240 | 12.9 | 0.0 | 0.00 | 0.00 | 0.00 | 86 | 1006.0 |
| 20260502160309 | 3 | 240 | 12.9 | 0.0 | 0.00 | 0.00 | 0.00 | 80 | 1006.0 |
| 20260502150309 | 2 | 250 | 16.1 | 37.0 | 0.00 | 0.00 | 0.00 | 86 | 1006.0 |
| 20260502130309 | 2 | 250 | 24.1 | 41.8 | 0.00 | 0.00 | 0.00 | 86 | 1006.0 |
| 20260502123308 | 3 | 240 | 25.7 | 48.3 | 0.00 | 0.00 | 0.00 | 80 | 1006.0 |
| 20260502120309 | 3 | 300 | 12.9 | 0.0 | 0.00 | 0.00 | 0.00 | 80 | 1006.0 |
| 20260502113310 | 3 | 290 | 20.9 | 0.0 | 0.00 | 0.00 | 0.00 | 80 | 1005.0 |
| 20260502110309 | 5 | 270 | 20.9 | 0.0 | 0.00 | 0.00 | 0.00 | 60 | 1005.0 |
| 20260502103308 | 5 | 260 | 27.4 | 48.3 | 0.00 | 0.00 | 0.00 | 60 | 1005.0 |
| 20260502100308 | 5 | 260 | 27.4 | 48.3 | 0.00 | 0.00 | 0.00 | 60 | 1005.0 |
| 20260502090308 | 5 | 280 | 14.5 | 0.0 | 0.00 | 0.00 | 0.00 | 70 | 1005.0 |